Weather Roundup
Issued by NWS

Home | Current Version | Previous Version | Text Only | Print | Product List | Glossary On
Versions: 1 2 3 4 5 6 7 8 9 10 11 12 13 14 15 16 17 18 19 20 21 22 23 24 25 26 27 28 29 30 31 32 33 34 35 36 37 38 39 40 41 42 43 44 45 46 47 48 49 50
000
NZUS93 KARX 201210
HRRWXR

CURRENT HOURLY OBSERVATIONS ACROSS
MUCH OF THE UPPER MISSISSIPPI VALLEY
NATIONAL WEATHER SERVICE LA CROSSE WI
700 AM CDT SUN AUG 20 2017


...SOUTHEAST MINNESOTA...


CITY           SKY/WX    TMP DP  RH WIND       PRES   REMARKS
ROCHESTER      MOCLDY    63  62  97 S8        29.94S
ROCHESTER/MAYO FAIR      65  63  95 SE13      29.93F
WINONA         MOCLDY    63  61  94 SE3       29.94S
AUSTIN         CLOUDY    63  61  94 CALM      29.94R
ALBERT LEA     CLOUDY    66  66 100 S5        29.92R
DODGE CENTER   CLOUDY    63  61  94 S6        29.93S
PRESTON        CLOUDY    62  59  91 S7        29.95S
OWATONNA       CLOUDY    66  63  88 S12       29.91R
FARIBAULT      CLOUDY    66  63  88 S7        29.91R
$$

...ELSEWHERE IN MINNESOTA...


CITY           SKY/WX    TMP DP  RH WIND       PRES   REMARKS
MINNEAPOLIS    CLOUDY    66  61  84 SE7       29.89S
INTNL FALLS    MOCLDY    62  59  90 VRB5      29.76R
DULUTH         PTCLDY    61  61 100 S6        29.86S
RED WING       CLOUDY    68  61  77 SE7       29.90S
REDWOOD FALLS  CLOUDY    64  62  93 CALM      29.88R
MANKATO        CLOUDY    67  64  90 S5        29.91R
WORTHINGTON    PTCLDY    67  63  87 SW7       29.93R
FAIRMONT       CLOUDY    65  64  97 S6        29.92R
$$

...SOUTHWEST WISCONSIN...


CITY           SKY/WX    TMP DP  RH WIND       PRES   REMARKS
LA CROSSE      CLOUDY    65  61  87 SE5       29.95S
PRAIRIE DU CHI CLOUDY    63  59  88 E3        29.96S
BOSCOBEL       MOCLDY    61  59  93 NE3       29.97F FOG
LONE ROCK      CLOUDY    59  59 100 E3        29.98F
PLATTEVILLE    CLOUDY    63  62  96 E7        29.98F
FORT MC COY    CLOUDY    52  52  98 CALM      29.96F
CAMP DOUGLAS   CLOUDY    59  59 100 SE5       29.97F
MAUSTON-NEW LI CLOUDY    62  60  93 SE5       29.98S
VIROQUA        FAIR      61  61  99 CALM      29.98S
WIS DELLS      CLOUDY    62  60  93 SE5       29.99F
$$

...ELSEWHERE IN WISCONSIN...


CITY           SKY/WX    TMP DP  RH WIND       PRES   REMARKS
MILWAUKEE      MOCLDY    65  59  81 SW5       30.03R
MADISON        CLOUDY    61  59  93 CALM      30.00F
GREEN BAY      CLEAR     60  60 100 CALM      30.00S FOG
EAU CLAIRE     CLOUDY    61  59  93 CALM      29.94R
BLACK RVR FLS  FAIR      53  53 100 CALM      29.96S
MEDFORD        CLOUDY    57  56  95 S6        29.98S
WAUSAU         CLOUDY    57  56  96 SE5       29.99R
WIS RAPIDS     CLOUDY    60  58  92 CALM      30.00R
MARSHFIELD     CLOUDY    58  55  90 CALM      29.98R
RICE LAKE      CLOUDY    60  59  96 SE3       29.94S
$$

...NORTHEAST IOWA...


CITY           SKY/WX    TMP DP  RH WIND       PRES   REMARKS
WATERLOO       CLOUDY    66  63  90 SE7       29.94R
DUBUQUE        CLOUDY    64  60  87 SE9       29.98S
DECORAH        CLOUDY    63  61  94 VRB5      29.94F
MASON CITY     CLOUDY    63  62  97 S5        29.95R FOG
CHARLES CITY   CLOUDY    64  64 100 SE7       29.94S
OELWEIN        CLOUDY    64  64 100 S7        29.96R
$$

...ELSEWHERE IN IOWA...


CITY           SKY/WX    TMP DP  RH WIND       PRES   REMARKS
DES MOINES     LGT RAIN  70  67  90 SE8       29.93F
IOWA CITY      CLOUDY    66  63  90 SE5       29.97R
FORT DODGE     CLOUDY    68  61  77 E3        29.92R
MARSHALLTOWN   LGT RAIN  68  66  93 S3        29.91F
CEDAR RAPIDS   CLOUDY    66  65  96 S6        29.95R
$$

...NORTHERN ILLINOIS...


CITY           SKY/WX    TMP DP  RH WIND       PRES   REMARKS
CHICAGO-OHARE  MOCLDY    65  58  78 S3        30.03R
CHICAGO-MIDWAY MOCLDY    68  60  75 SE6       30.03S
MOLINE         CLOUDY    64  60  87 E3        29.98R
ROCKFORD       CLOUDY    63  58  83 CALM      30.02S
PEORIA         CLOUDY    70  65  84 CALM      30.00R
$$

NOTE: "FAIR" INDICATES FEW OR NO CLOUDS BELOW 12,000 FEET WITH NO
SIGNIFICANT WEATHER AND/OR OBSTRUCTIONS TO VISIBILITY. WIND
SPEEDS ARE IN MILES-PER-HOUR.




USA.gov is the U.S. government's official web portal to all federal, state and local government web resources and services.